Regional Weather Roundup
Issued by NWS

Home | Current Version | Previous Version | Text Only | Print | Product List | Glossary Off
Versions: 1 2 3 4 5 6 7 8 9 10 11 12 13 14 15 16 17 18 19 20 21 22 23 24 25 26 27 28 29 30 31 32 33 34 35 36 37 38 39 40 41 42 43 44 45 46 47 48 49 50

000
ASUS43 KFSD 301910
RWRSD

WEATHER ROUNDUP FOR SOUTH DAKOTA
NATIONAL WEATHER SERVICE SIOUX FALLS SD
200 PM CDT SUN APR 30 2017

NOTE: "FAIR" INDICATES FEW OR NO CLOUDS BELOW 12,000 FEET WITH NO
SIGNIFICANT WEATHER AND/OR OBSTRUCTIONS TO VISIBILITY.


SDZ001>005-009-010-012>017-302000-
NORTHWEST AND NORTH CENTRAL SOUTH DAKOTA

CITY           SKY/WX    TMP DP  RH WIND       PRES   REMARKS
BUFFALO          N/A     59  19  21 VRB6      29.89F
FAITH            N/A     57  19  22 VRB5      29.94F
MOBRIDGE       CLOUDY    62  22  21 NE10      29.91F
$$

SDZ012>016-024>037-041>051-057-063-072>074-302000-
SOUTHWEST AND SOUTH CENTRAL SOUTH DAKOTA

CITY           SKY/WX    TMP DP  RH WIND       PRES   REMARKS
RAPID CTY ARPT SUNNY     57  25  29 N13       29.94F
PIERRE         PTSUNNY   56  22  26 NE17      29.89F
CUSTER         SUNNY     48  16  27 VRB5      29.94F
ELLSWORTH AFB  SUNNY     56  21  25 N12       29.94F
PHILIP         PTSUNNY   57  20  23 NE18G24   29.91F
PINE RIDGE     SUNNY     56  23  27 N15       29.91F
SPEARFISH      FAIR      54  25  32 NE9       29.95F
WINNER         FAIR      51  19  28 N26G32    29.85F
$$

SDZ004>011-016>023-039-040-302000-
NORTHEAST SOUTH DAKOTA

CITY           SKY/WX    TMP DP  RH WIND       PRES   REMARKS
ABERDEEN       CLOUDY    56  12  17 NE21G28   29.91F
WATERTOWN      CLOUDY    48  22  35 NE22G30   29.87F
BROOKINGS      LGT RAIN  43  26  51 NE18      29.84F
SISSETON         N/A     56  19  23 E18G29    29.91F
$$

SDZ017-020-022-023-036>040-048>070-302000-
SOUTHEAST SOUTH DAKOTA

CITY           SKY/WX    TMP DP  RH WIND       PRES   REMARKS
SIOUX FALLS    LGT RAIN  41  41 100 NE23G36   29.80F
HURON          CLOUDY    51  24  34 NE21      29.86F
CHAMBERLAIN    CLOUDY    51  24  34 N13G22    29.86F
MITCHELL       CLOUDY    48  27  44 NE17G28   29.85F
YANKTON        CLOUDY    39  36  87 N25       29.75F
$$

ABBREVIATIONS USED IN REMARKS
   TC - TEMPERATURE IN CELSIUS
  WCI - WIND CHILL INDEX
   HX - HEAT INDEX
  VSB - VISIBILITY




USA.gov is the U.S. government's official web portal to all federal, state and local government web resources and services.